STARLINK-34536 (64748 NORAD) Tracking and Keplerian Element Data

This shows tracking and keplerian element data for the satellite.

Feedback or suggestion? Click here.




ElementValue
Catalog64748
NameSTARLINK-34536
Epoch Orbit2748
Epoch Day353.82850028
Epoch Year2025
RAAN192.0592
Inclination53.1577
Eccentricity0.0001329
Argument of Perigee81.5431
Mean Anonmoly278.572
Mean Motion15.30181386
Decay Rate0.00016036
L11 64748U 25144AA 25353.82850028 .00016036 00000+0 55268-3 0 9990
L22 64748 53.1577 192.0592 0001329 81.5431 278.5720 15.30181386 27482



Live tracking and technical data element details for STARLINK-34536 (NORAD 64748). STARLINK-34536 can be tracked NOW for your location showing map with azimuth and elevation plus other details from your city location.







IsCatalogInMostPopularTable: catalog: 64748, numindb: 9
Update: records affected: 1



GetName: 64748 STARLINK-34536

Hit Count: updated at: Thu, 16 Apr 2026 06:52:07 GMT